Time,TemperatureF,DewpointF,PressureIn,WindDirection,WindDirectionDegrees,WindSpeedMPH,WindSpeedGustMPH,Humidity,HourlyPrecipIn,Conditions,Clouds,dailyrainin,SoftwareType,DateUTC
2013-07-20 00:02:00,69.0,61.0,29.88,WNW,296,7.0,10.0,75,0.00,,,0.04,,2013-07-20 05:02:00,
2013-07-20 00:12:00,69.0,61.0,29.88,WNW,290,6.0,11.0,75,0.00,,,0.04,,2013-07-20 05:12:00,
2013-07-20 00:22:00,69.0,61.0,29.88,WNW,290,6.0,11.0,75,0.00,,,0.04,,2013-07-20 05:22:00,
2013-07-20 00:32:00,69.0,60.0,29.88,WNW,295,8.0,11.0,73,0.00,,,0.04,,2013-07-20 05:32:00,
2013-07-20 00:52:00,69.0,60.0,29.88,WNW,292,7.0,11.0,73,0.00,,,0.04,,2013-07-20 05:52:00,
2013-07-20 01:01:00,69.0,60.0,29.88,WNW,298,5.0,9.0,73,0.00,,,0.04,,2013-07-20 06:01:00,
2013-07-20 01:11:00,69.0,60.0,29.88,WNW,292,6.0,8.0,72,0.00,,,0.04,,2013-07-20 06:11:00,
2013-07-20 01:21:00,69.0,60.0,29.88,WNW,292,6.0,8.0,72,0.00,,,0.04,,2013-07-20 06:21:00,
2013-07-20 01:32:00,69.0,59.0,29.87,WNW,293,3.0,6.0,71,0.00,,,0.04,,2013-07-20 06:32:00,
2013-07-20 01:43:00,69.0,60.0,29.86,WNW,296,2.0,4.0,72,0.00,,,0.04,,2013-07-20 06:43:00,
2013-07-20 01:52:00,69.0,60.0,29.86,WNW,296,2.0,4.0,72,0.00,,,0.04,,2013-07-20 06:52:00,
2013-07-20 02:01:00,68.0,60.0,29.86,SW,223,4.0,7.0,76,0.00,,,0.04,,2013-07-20 07:01:00,
2013-07-20 02:12:00,67.0,60.0,29.86,SW,225,2.0,3.0,77,0.00,,,0.04,,2013-07-20 07:12:00,
2013-07-20 02:22:00,67.0,60.0,29.86,SW,225,2.0,3.0,77,0.00,,,0.04,,2013-07-20 07:22:00,
2013-07-20 02:33:00,67.0,60.0,29.86,WSW,252,2.0,4.0,78,0.00,,,0.04,,2013-07-20 07:33:00,
2013-07-20 02:44:00,68.0,60.0,29.87,WNW,292,5.0,7.0,76,0.00,,,0.04,,2013-07-20 07:44:00,
2013-07-20 02:53:00,68.0,60.0,29.87,WNW,292,5.0,7.0,76,0.00,,,0.04,,2013-07-20 07:53:00,
2013-07-20 03:01:00,68.0,60.0,29.88,WNW,299,3.0,8.0,75,0.00,,,0.04,,2013-07-20 08:01:00,
2013-07-20 03:11:00,68.0,60.0,29.88,NW,308,4.0,9.0,76,0.00,,,0.04,,2013-07-20 08:11:00,
2013-07-20 03:22:00,68.0,60.0,29.88,NW,308,4.0,9.0,76,0.00,,,0.04,,2013-07-20 08:22:00,
2013-07-20 03:32:00,67.0,60.0,29.88,WNW,303,6.0,9.0,77,0.00,,,0.04,,2013-07-20 08:32:00,
2013-07-20 03:44:00,67.0,60.0,29.88,NW,306,8.0,12.0,77,0.00,,,0.01,,2013-07-20 08:44:00,
2013-07-20 03:52:00,67.0,60.0,29.88,NW,306,8.0,12.0,77,0.00,,,0.01,,2013-07-20 08:52:00,
2013-07-20 04:02:00,66.0,59.0,29.87,NW,308,6.0,11.0,78,0.00,,,0.01,,2013-07-20 09:02:00,
2013-07-20 04:11:00,66.0,60.0,29.87,NW,313,5.0,9.0,80,0.00,,,0.01,,2013-07-20 09:11:00,
2013-07-20 04:22:00,66.0,60.0,29.87,NW,313,5.0,9.0,80,0.00,,,0.01,,2013-07-20 09:22:00,
2013-07-20 04:33:00,65.0,59.0,29.87,NW,305,4.0,8.0,82,0.00,,,0.01,,2013-07-20 09:33:00,
2013-07-20 04:43:00,64.0,59.0,29.88,WNW,286,6.0,9.0,83,0.00,,,0.00,,2013-07-20 09:43:00,
2013-07-20 04:53:00,64.0,59.0,29.88,WNW,286,6.0,9.0,83,0.00,,,0.00,,2013-07-20 09:53:00,
2013-07-20 05:01:00,64.0,59.0,29.88,NW,315,7.0,9.0,84,0.00,,,0.00,,2013-07-20 10:01:00,
2013-07-20 05:11:00,64.0,59.0,29.88,NW,310,5.0,12.0,83,0.00,,,0.00,,2013-07-20 10:11:00,
2013-07-20 05:22:00,64.0,59.0,29.88,NW,310,5.0,12.0,83,0.00,,,0.00,,2013-07-20 10:22:00,
2013-07-20 05:32:00,64.0,59.0,29.88,NW,308,4.0,9.0,84,0.00,,,0.00,,2013-07-20 10:32:00,
2013-07-20 05:42:00,64.0,59.0,29.89,NW,306,6.0,11.0,84,0.00,,,0.00,,2013-07-20 10:42:00,
2013-07-20 05:52:00,64.0,59.0,29.89,NW,306,6.0,11.0,84,0.00,,,0.00,,2013-07-20 10:52:00,
2013-07-20 06:01:00,64.0,59.0,29.89,NW,318,9.0,12.0,85,0.00,,,0.00,,2013-07-20 11:01:00,
2013-07-20 06:11:00,63.0,59.0,29.89,NW,320,8.0,12.0,86,0.00,,,0.00,,2013-07-20 11:11:00,
2013-07-20 06:22:00,63.0,59.0,29.89,NW,320,8.0,12.0,86,0.00,,,0.00,,2013-07-20 11:22:00,
2013-07-20 06:32:00,64.0,60.0,29.89,NW,321,5.0,10.0,86,0.00,,,0.00,,2013-07-20 11:32:00,
2013-07-20 06:43:00,64.0,60.0,29.90,NNW,328,4.0,8.0,86,0.00,,,0.00,,2013-07-20 11:43:00,
2013-07-20 06:52:00,64.0,60.0,29.90,NNW,328,4.0,8.0,86,0.00,,,0.00,,2013-07-20 11:52:00,
2013-07-20 07:01:00,65.0,60.0,29.90,NNW,342,4.0,10.0,84,0.00,,,0.00,,2013-07-20 12:01:00,
2013-07-20 07:11:00,65.0,60.0,29.91,NNW,327,4.0,8.0,84,0.00,,,0.00,,2013-07-20 12:11:00,
2013-07-20 07:22:00,65.0,60.0,29.91,NNW,327,4.0,8.0,84,0.00,,,0.00,,2013-07-20 12:22:00,
2013-07-20 07:32:00,65.0,60.0,29.91,NNW,335,4.0,9.0,84,0.00,,,0.00,,2013-07-20 12:32:00,
2013-07-20 07:52:00,66.0,60.0,29.92,NNE,23,6.0,11.0,82,0.00,,,0.00,,2013-07-20 12:52:00,
2013-07-20 08:01:00,67.0,61.0,29.92,NNE,30,5.0,9.0,80,0.00,,,0.00,,2013-07-20 13:01:00,
2013-07-20 08:11:00,67.0,61.0,29.93,North,7,2.0,10.0,80,0.00,,,0.00,,2013-07-20 13:11:00,
2013-07-20 08:22:00,67.0,61.0,29.93,North,7,2.0,10.0,80,0.00,,,0.00,,2013-07-20 13:22:00,
2013-07-20 08:32:00,67.0,60.0,29.94,NNE,33,3.0,6.0,78,0.00,,,0.00,,2013-07-20 13:32:00,
2013-07-20 08:43:00,68.0,60.0,29.94,ENE,57,5.0,9.0,75,0.00,,,0.00,,2013-07-20 13:43:00,
2013-07-20 08:53:00,68.0,60.0,29.94,ENE,57,5.0,9.0,75,0.00,,,0.00,,2013-07-20 13:53:00,
2013-07-20 09:02:00,69.0,60.0,29.95,ENE,65,3.0,9.0,74,0.00,,,0.00,,2013-07-20 14:02:00,
2013-07-20 09:11:00,69.0,60.0,29.95,North,5,4.0,8.0,73,0.00,,,0.00,,2013-07-20 14:11:00,
2013-07-20 09:22:00,69.0,60.0,29.95,North,5,4.0,8.0,73,0.00,,,0.00,,2013-07-20 14:22:00,
2013-07-20 09:32:00,70.0,61.0,29.95,NNE,22,3.0,7.0,72,0.00,,,0.00,,2013-07-20 14:32:00,
2013-07-20 09:43:00,72.0,60.0,29.95,ENE,59,4.0,9.0,67,0.00,,,0.00,,2013-07-20 14:43:00,
2013-07-20 09:53:00,72.0,60.0,29.95,ENE,59,4.0,9.0,67,0.00,,,0.00,,2013-07-20 14:53:00,
2013-07-20 10:01:00,72.0,60.0,29.95,NE,38,3.0,9.0,65,0.00,,,0.00,,2013-07-20 15:01:00,
2013-07-20 10:11:00,72.0,59.0,29.96,North,9,3.0,8.0,64,0.00,,,0.00,,2013-07-20 15:11:00,
2013-07-20 10:22:00,72.0,59.0,29.96,North,9,3.0,8.0,64,0.00,,,0.00,,2013-07-20 15:22:00,
2013-07-20 10:33:00,72.0,60.0,29.96,NNE,33,2.0,6.0,65,0.00,,,0.00,,2013-07-20 15:33:00,
2013-07-20 10:44:00,73.0,60.0,29.96,NNE,31,2.0,4.0,63,0.00,,,0.00,,2013-07-20 15:44:00,
2013-07-20 10:53:00,73.0,60.0,29.96,NNE,31,2.0,4.0,63,0.00,,,0.00,,2013-07-20 15:53:00,
2013-07-20 11:01:00,74.0,60.0,29.96,NE,43,3.0,8.0,61,0.00,,,0.00,,2013-07-20 16:01:00,
2013-07-20 11:11:00,75.0,61.0,29.96,NE,54,4.0,8.0,62,0.00,,,0.00,,2013-07-20 16:11:00,
2013-07-20 11:22:00,75.0,61.0,29.96,NE,54,4.0,8.0,62,0.00,,,0.00,,2013-07-20 16:22:00,
2013-07-20 11:32:00,75.0,61.0,29.96,NE,47,2.0,6.0,61,0.00,,,0.00,,2013-07-20 16:32:00,
2013-07-20 11:43:00,75.0,59.0,29.96,North,9,3.0,6.0,58,0.00,,,0.00,,2013-07-20 16:43:00,
2013-07-20 11:52:00,75.0,59.0,29.96,North,9,3.0,6.0,58,0.00,,,0.00,,2013-07-20 16:52:00,
2013-07-20 12:02:00,75.0,59.0,29.96,NE,54,3.0,7.0,57,0.00,,,0.00,,2013-07-20 17:02:00,
2013-07-20 12:11:00,76.0,55.0,29.96,NNE,13,6.0,10.0,49,0.00,,,0.00,,2013-07-20 17:11:00,
2013-07-20 12:22:00,76.0,55.0,29.96,NNE,13,6.0,10.0,49,0.00,,,0.00,,2013-07-20 17:22:00,
2013-07-20 12:32:00,78.0,57.0,29.96,ENE,63,4.0,11.0,49,0.00,,,0.00,,2013-07-20 17:32:00,
2013-07-20 12:43:00,77.0,55.0,29.97,East,82,5.0,10.0,47,0.00,,,0.00,,2013-07-20 17:43:00,
2013-07-20 12:53:00,77.0,55.0,29.97,East,82,5.0,10.0,47,0.00,,,0.00,,2013-07-20 17:53:00,
2013-07-20 13:01:00,77.0,55.0,29.97,NE,40,4.0,9.0,47,0.00,,,0.00,,2013-07-20 18:01:00,
2013-07-20 13:11:00,77.0,56.0,29.97,NE,49,4.0,10.0,49,0.00,,,0.00,,2013-07-20 18:11:00,
2013-07-20 13:24:00,77.0,56.0,29.97,NE,49,4.0,10.0,49,0.00,,,0.00,,2013-07-20 18:24:00,
2013-07-20 13:36:00,76.0,55.0,29.97,NNE,25,5.0,10.0,49,0.00,,,0.00,,2013-07-20 18:36:00,
2013-07-20 13:45:00,77.0,55.0,29.97,North,7,7.0,12.0,46,0.00,,,0.00,,2013-07-20 18:45:00,
2013-07-20 13:55:00,77.0,55.0,29.97,North,7,7.0,12.0,46,0.00,,,0.00,,2013-07-20 18:55:00,
2013-07-20 14:05:00,78.0,55.0,29.97,NE,43,5.0,8.0,45,0.00,,,0.00,,2013-07-20 19:05:00,
2013-07-20 14:25:00,78.0,55.0,29.96,NE,49,0.0,10.0,45,0.00,,,0.00,,2013-07-20 19:25:00,
2013-07-20 14:35:00,79.0,57.0,29.96,North,7,4.0,10.0,47,0.00,,,0.00,,2013-07-20 19:35:00,
2013-07-20 14:43:00,77.0,57.0,29.97,ENE,63,3.0,10.0,50,0.00,,,0.00,,2013-07-20 19:43:00,
2013-07-20 14:53:00,77.0,57.0,29.97,ENE,63,3.0,10.0,50,0.00,,,0.00,,2013-07-20 19:53:00,
2013-07-20 15:06:00,78.0,57.0,29.97,ENE,60,2.0,4.0,48,0.00,,,0.00,,2013-07-20 20:06:00,
2013-07-20 15:14:00,79.0,58.0,29.97,NNE,30,4.0,6.0,48,0.00,,,0.00,,2013-07-20 20:14:00,
2013-07-20 15:23:00,79.0,58.0,29.97,NNE,30,4.0,6.0,48,0.00,,,0.00,,2013-07-20 20:23:00,
2013-07-20 15:45:00,78.0,58.0,29.96,NE,53,3.0,7.0,51,0.00,,,0.00,,2013-07-20 20:45:00,
2013-07-20 15:56:00,78.0,58.0,29.96,NE,53,3.0,7.0,51,0.00,,,0.00,,2013-07-20 20:56:00,
2013-07-20 16:14:00,79.0,59.0,29.95,NE,56,5.0,10.0,50,0.00,,,0.00,,2013-07-20 21:14:00,
2013-07-20 16:26:00,79.0,59.0,29.95,NE,56,5.0,10.0,50,0.00,,,0.00,,2013-07-20 21:26:00,
2013-07-20 16:44:00,80.0,59.0,29.94,ENE,57,6.0,11.0,48,0.00,,,0.00,,2013-07-20 21:44:00,
2013-07-20 16:55:00,80.0,59.0,29.94,ENE,57,6.0,11.0,48,0.00,,,0.00,,2013-07-20 21:55:00,
2013-07-20 17:15:00,77.0,57.0,29.94,East,92,5.0,9.0,51,0.00,,,0.00,,2013-07-20 22:15:00,
2013-07-20 17:25:00,77.0,57.0,29.94,East,92,5.0,9.0,51,0.00,,,0.00,,2013-07-20 22:25:00,
2013-07-20 17:34:00,78.0,58.0,29.94,NE,43,3.0,10.0,51,0.00,,,0.00,,2013-07-20 22:34:00,
2013-07-20 17:47:00,76.0,58.0,29.95,North,5,4.0,6.0,54,0.00,,,0.00,,2013-07-20 22:47:00,
2013-07-20 17:54:00,76.0,58.0,29.95,North,5,4.0,6.0,54,0.00,,,0.00,,2013-07-20 22:54:00,
2013-07-20 18:04:00,74.0,58.0,29.95,NE,48,3.0,10.0,57,0.00,,,0.00,,2013-07-20 23:04:00,
2013-07-20 18:27:00,75.0,58.0,29.94,ENE,70,5.0,10.0,56,0.00,,,0.00,,2013-07-20 23:27:00,
2013-07-20 18:36:00,76.0,58.0,29.94,NE,47,8.0,14.0,53,0.00,,,0.00,,2013-07-20 23:36:00,
2013-07-20 18:44:00,76.0,58.0,29.94,NE,47,4.0,13.0,54,0.00,,,0.00,,2013-07-20 23:44:00,
2013-07-20 19:06:00,76.0,58.0,29.94,NE,43,6.0,11.0,54,0.00,,,0.00,,2013-07-21 00:06:00,
2013-07-20 19:16:00,76.0,58.0,29.94,ENE,77,5.0,11.0,53,0.00,,,0.00,,2013-07-21 00:16:00,
2013-07-20 19:23:00,76.0,58.0,29.94,ENE,77,5.0,11.0,53,0.00,,,0.00,,2013-07-21 00:23:00,
2013-07-20 19:43:00,73.0,55.0,29.95,NE,47,6.0,12.0,53,0.00,,,0.00,,2013-07-21 00:43:00,
2013-07-20 19:55:00,73.0,55.0,29.95,NE,47,6.0,12.0,53,0.00,,,0.00,,2013-07-21 00:55:00,
2013-07-20 20:06:00,72.0,55.0,29.95,NE,47,4.0,9.0,56,0.00,,,0.00,,2013-07-21 01:06:00,
2013-07-20 20:12:00,72.0,55.0,29.96,NNE,24,5.0,9.0,56,0.00,,,0.00,,2013-07-21 01:12:00,
2013-07-20 20:26:00,72.0,55.0,29.96,NNE,24,5.0,9.0,56,0.00,,,0.00,,2013-07-21 01:26:00,
2013-07-20 20:36:00,70.0,54.0,29.95,NE,45,4.0,10.0,57,0.00,,,0.00,,2013-07-21 01:36:00,
2013-07-20 20:45:00,-999.0,-99.9,29.96,NE,34,3.0,7.0,-999,-99.99,,,-99.99,,2013-07-21 01:45:00,
2013-07-20 21:05:00,69.0,55.0,29.96,ENE,66,3.0,5.0,62,0.00,,,0.00,,2013-07-21 02:05:00,
2013-07-20 21:26:00,67.0,55.0,29.96,ENE,59,4.0,6.0,65,0.00,,,0.00,,2013-07-21 02:26:00,
2013-07-20 21:36:00,67.0,55.0,29.96,NE,55,3.0,6.0,66,0.00,,,0.00,,2013-07-21 02:36:00,
2013-07-20 21:44:00,67.0,55.0,29.97,ENE,62,3.0,5.0,66,0.00,,,0.00,,2013-07-21 02:44:00,
2013-07-20 21:54:00,67.0,55.0,29.97,ENE,62,3.0,5.0,66,0.00,,,0.00,,2013-07-21 02:54:00,
2013-07-20 22:04:00,66.0,55.0,29.97,NE,55,8.0,12.0,68,0.00,,,0.00,,2013-07-21 03:04:00,
2013-07-20 22:14:00,66.0,53.0,29.98,ENE,67,9.0,14.0,64,0.00,,,0.00,,2013-07-21 03:14:00,
2013-07-20 22:25:00,66.0,53.0,29.98,ENE,67,9.0,14.0,64,0.00,,,0.00,,2013-07-21 03:25:00,
2013-07-20 22:35:00,65.0,53.0,29.98,NE,53,9.0,13.0,65,0.00,,,0.00,,2013-07-21 03:35:00,
2013-07-20 22:44:00,65.0,52.0,29.99,ENE,60,10.0,16.0,62,0.00,,,0.00,,2013-07-21 03:44:00,
2013-07-20 23:01:00,65.0,51.0,29.99,ENE,70,10.0,15.0,60,0.00,,,0.00,,2013-07-21 04:01:00,
2013-07-20 23:11:00,65.0,51.0,30.00,ENE,64,10.0,19.0,60,0.00,,,0.00,,2013-07-21 04:11:00,
2013-07-20 23:22:00,65.0,51.0,30.00,ENE,64,10.0,19.0,60,0.00,,,0.00,,2013-07-21 04:22:00,
2013-07-20 23:32:00,64.0,49.0,30.00,ENE,66,9.0,14.0,59,0.00,,,0.00,,2013-07-21 04:32:00,
2013-07-20 23:43:00,64.0,49.0,30.01,NE,51,8.0,13.0,59,0.00,,,0.00,,2013-07-21 04:43:00,
2013-07-20 23:53:00,64.0,49.0,30.01,NE,51,8.0,13.0,59,0.00,,,0.00,,2013-07-21 04:53:00,